| time (UTC) | temp C | wind direction | speed KPH | gust KPH | rain 1hr cm | rain 24hr cm | rain mn cm | humidity % | barometer mb |
| 20260503021821 | 6 | 35 | 0.0 | 0.0 | 0.00 | 0.00 | 0.00 | 93 | 1019.6 |
| 20260503021321 | 6 | 35 | 0.0 | 0.0 | 0.00 | 0.00 | 0.00 | 93 | 1019.5 |
| 20260503020820 | 6 | 35 | 0.0 | 0.0 | 0.00 | 0.00 | 0.00 | 92 | 1019.6 |
| 20260503020321 | 6 | 35 | 0.0 | 0.0 | 0.00 | 0.00 | 0.00 | 92 | 1019.6 |
| 20260503015821 | 6 | 35 | 0.0 | 0.0 | 0.00 | 0.00 | 0.00 | 92 | 1019.6 |
| 20260503014321 | 6 | 35 | 0.0 | 0.0 | 0.00 | 0.00 | 0.00 | 92 | 1019.7 |
| 20260503013821 | 6 | 35 | 0.0 | 0.0 | 0.00 | 0.00 | 0.00 | 92 | 1019.7 |
| 20260503013322 | 6 | 35 | 0.0 | 0.0 | 0.00 | 0.00 | 0.00 | 92 | 1019.8 |
| 20260503012821 | 7 | 35 | 0.0 | 0.0 | 0.00 | 0.00 | 0.00 | 92 | 1019.8 |
| 20260503011820 | 7 | 35 | 0.0 | 0.0 | 0.00 | 0.00 | 0.00 | 92 | 1019.9 |
| 20260503011320 | 7 | 35 | 0.0 | 0.0 | 0.00 | 0.00 | 0.00 | 92 | 1019.9 |
| 20260503010820 | 7 | 34 | 0.0 | 0.0 | 0.00 | 0.00 | 0.00 | 92 | 1020.0 |
| 20260503010322 | 7 | 35 | 0.0 | 0.0 | 0.00 | 0.00 | 0.00 | 91 | 1020.0 |
| 20260503005321 | 7 | 34 | 0.0 | 0.0 | 0.00 | 0.00 | 0.00 | 91 | 1020.0 |
| 20260503004821 | 7 | 34 | 0.0 | 0.0 | 0.00 | 0.00 | 0.00 | 91 | 1020.0 |
| 20260503004320 | 7 | 34 | 0.0 | 0.0 | 0.00 | 0.00 | 0.00 | 91 | 1020.0 |
| 20260503003821 | 7 | 34 | 0.0 | 0.0 | 0.00 | 0.00 | 0.00 | 91 | 1020.0 |
| 20260503003321 | 7 | 34 | 0.0 | 0.0 | 0.00 | 0.00 | 0.00 | 90 | 1020.0 |
| 20260503002821 | 7 | 34 | 0.0 | 0.0 | 0.00 | 0.00 | 0.00 | 90 | 1020.1 |
| 20260503002321 | 7 | 34 | 0.0 | 0.0 | 0.00 | 0.00 | 0.00 | 90 | 1020.2 |
| 20260503001821 | 7 | 34 | 0.0 | 0.0 | 0.00 | 0.00 | 0.00 | 90 | 1020.2 |
| 20260503000820 | 7 | 34 | 0.0 | 0.0 | 0.00 | 0.00 | 0.00 | 90 | 1020.2 |
| 20260503000320 | 8 | 34 | 0.0 | 0.0 | 0.00 | 0.00 | 0.00 | 90 | 1020.4 |
| 20260502235821 | 8 | 34 | 0.0 | 0.0 | 0.00 | 0.00 | 0.00 | 90 | 1020.4 |
| 20260502235320 | 8 | 34 | 0.0 | 0.0 | 0.00 | 0.00 | 0.00 | 90 | 1020.4 |
| 20260502234820 | 8 | 34 | 0.0 | 0.0 | 0.00 | 0.00 | 0.00 | 89 | 1020.4 |
| 20260502234320 | 8 | 34 | 0.0 | 0.0 | 0.00 | 0.00 | 0.00 | 88 | 1020.5 |
| 20260502233821 | 8 | 34 | 0.0 | 0.0 | 0.00 | 0.00 | 0.00 | 88 | 1020.5 |
| 20260502233321 | 8 | 34 | 0.0 | 0.0 | 0.00 | 0.00 | 0.00 | 88 | 1020.5 |
| 20260502232320 | 8 | 34 | 0.0 | 0.0 | 0.00 | 0.00 | 0.00 | 88 | 1020.6 |
| 20260502231820 | 8 | 34 | 0.0 | 0.0 | 0.00 | 0.00 | 0.00 | 88 | 1020.6 |
| 20260502231321 | 8 | 34 | 0.0 | 0.0 | 0.00 | 0.00 | 0.00 | 87 | 1020.6 |
| 20260502230821 | 9 | 34 | 0.0 | 0.0 | 0.00 | 0.00 | 0.00 | 87 | 1020.6 |
| 20260502230321 | 9 | 34 | 0.0 | 0.0 | 0.00 | 0.00 | 0.00 | 87 | 1020.6 |
| 20260502225820 | 9 | 34 | 0.0 | 0.0 | 0.00 | 0.00 | 0.00 | 86 | 1020.6 |
| 20260502224821 | 9 | 34 | 0.0 | 0.0 | 0.00 | 0.00 | 0.00 | 86 | 1020.7 |
| 20260502224321 | 9 | 34 | 0.0 | 0.0 | 0.00 | 0.00 | 0.00 | 86 | 1020.6 |
| 20260502223821 | 10 | 34 | 0.0 | 0.0 | 0.00 | 0.00 | 0.00 | 85 | 1020.6 |
| 20260502222820 | 10 | 34 | 0.0 | 0.0 | 0.00 | 0.00 | 0.00 | 84 | 1020.7 |
| 20260502221820 | 10 | 34 | 0.0 | 0.0 | 0.00 | 0.00 | 0.00 | 84 | 1020.8 |
| 20260502221320 | 10 | 34 | 0.0 | 0.0 | 0.00 | 0.00 | 0.00 | 83 | 1020.7 |
| 20260502220828 | 10 | 34 | 0.0 | 0.0 | 0.00 | 0.00 | 0.00 | 82 | 1020.7 |
| 20260502220320 | 10 | 34 | 0.0 | 0.0 | 0.00 | 0.00 | 0.00 | 82 | 1020.7 |
| 20260502215820 | 11 | 34 | 0.0 | 0.0 | 0.00 | 0.00 | 0.00 | 82 | 1020.7 |
| 20260502215320 | 11 | 34 | 0.0 | 0.0 | 0.00 | 0.00 | 0.00 | 81 | 1020.7 |
| 20260502214820 | 11 | 18 | 0.0 | 0.0 | 0.00 | 0.00 | 0.00 | 80 | 1020.6 |
| 20260502214320 | 11 | 45 | 0.0 | 0.0 | 0.00 | 0.00 | 0.00 | 80 | 1020.6 |
| 20260502213820 | 11 | 20 | 0.0 | 0.0 | 0.00 | 0.00 | 0.00 | 80 | 1020.6 |
| 20260502213320 | 11 | 36 | 0.0 | 0.0 | 0.00 | 0.00 | 0.00 | 80 | 1020.6 |
| 20260502212821 | 11 | 20 | 0.0 | 0.0 | 0.00 | 0.00 | 0.00 | 79 | 1020.6 |
| 20260502212320 | 11 | 26 | 0.0 | 0.0 | 0.00 | 0.00 | 0.00 | 79 | 1020.5 |
| 20260502211320 | 12 | 51 | 0.0 | 0.0 | 0.00 | 0.00 | 0.00 | 78 | 1020.6 |
| 20260502210820 | 12 | 37 | 0.0 | 0.0 | 0.00 | 0.00 | 0.00 | 77 | 1020.6 |
| 20260502210321 | 12 | 58 | 0.0 | 0.0 | 0.00 | 0.00 | 0.00 | 77 | 1020.6 |
| 20260502205820 | 12 | 57 | 0.0 | 1.6 | 0.00 | 0.00 | 0.00 | 76 | 1020.6 |
| 20260502205320 | 12 | 40 | 0.0 | 1.6 | 0.00 | 0.00 | 0.00 | 76 | 1020.6 |
| 20260502204321 | 12 | 38 | 0.0 | 1.6 | 0.00 | 0.00 | 0.00 | 74 | 1020.6 |
| 20260502203320 | 13 | 38 | 0.0 | 3.2 | 0.00 | 0.00 | 0.00 | 73 | 1020.5 |
| 20260502202821 | 13 | 38 | 0.0 | 8.0 | 0.00 | 0.00 | 0.00 | 73 | 1020.5 |
| 20260502202320 | 13 | 38 | 1.6 | 9.7 | 0.00 | 0.00 | 0.00 | 72 | 1020.5 |
| 20260502200820 | 14 | 304 | 3.2 | 4.8 | 0.00 | 0.00 | 0.00 | 70 | 1020.4 |
| 20260502200320 | 14 | 304 | 1.6 | 8.0 | 0.00 | 0.00 | 0.00 | 69 | 1020.4 |
| 20260502195820 | 14 | 313 | 1.6 | 8.0 | 0.00 | 0.00 | 0.00 | 68 | 1020.4 |
| 20260502195320 | 14 | 295 | 4.8 | 8.0 | 0.00 | 0.00 | 0.00 | 68 | 1020.4 |
| 20260502194820 | 15 | 303 | 1.6 | 9.7 | 0.00 | 0.00 | 0.00 | 68 | 1020.3 |
| 20260502193820 | 15 | 291 | 3.2 | 9.7 | 0.00 | 0.00 | 0.00 | 67 | 1020.2 |
| 20260502192820 | 15 | 303 | 1.6 | 9.7 | 0.00 | 0.00 | 0.00 | 67 | 1020.2 |
| 20260502192320 | 15 | 316 | 3.2 | 9.7 | 0.00 | 0.00 | 0.00 | 67 | 1020.1 |
| 20260502191820 | 15 | 311 | 3.2 | 8.0 | 0.00 | 0.00 | 0.00 | 67 | 1020.1 |
| 20260502190820 | 15 | 304 | 1.6 | 4.8 | 0.00 | 0.00 | 0.00 | 67 | 1020.1 |
| 20260502185320 | 15 | 290 | 1.6 | 8.0 | 0.00 | 0.00 | 0.00 | 66 | 1020.0 |
| 20260502184820 | 15 | 290 | 3.2 | 8.0 | 0.00 | 0.00 | 0.00 | 67 | 1019.9 |
| 20260502184320 | 15 | 303 | 3.2 | 12.9 | 0.00 | 0.00 | 0.00 | 67 | 1019.9 |
| 20260502183820 | 15 | 305 | 3.2 | 12.9 | 0.00 | 0.00 | 0.00 | 66 | 1019.8 |
| 20260502183321 | 15 | 312 | 3.2 | 12.9 | 0.00 | 0.00 | 0.00 | 67 | 1019.7 |
| 20260502182820 | 15 | 309 | 3.2 | 9.7 | 0.00 | 0.00 | 0.00 | 66 | 1019.6 |
| 20260502182320 | 16 | 308 | 3.2 | 9.7 | 0.00 | 0.00 | 0.00 | 66 | 1019.5 |
| 20260502181820 | 16 | 313 | 4.8 | 8.0 | 0.00 | 0.00 | 0.00 | 66 | 1019.5 |
| 20260502181320 | 16 | 311 | 6.4 | 11.3 | 0.00 | 0.00 | 0.00 | 65 | 1019.4 |
| 20260502180320 | 17 | 319 | 3.2 | 9.7 | 0.00 | 0.00 | 0.00 | 63 | 1019.3 |
| 20260502170322 | 20 | 132 | 3.2 | 11.3 | 0.00 | 0.00 | 0.00 | 49 | 1018.9 |
| 20260502164321 | 21 | 103 | 0.0 | 3.2 | 0.00 | 0.00 | 0.00 | 46 | 1019.0 |
| 20260502163820 | 21 | 103 | 1.6 | 3.2 | 0.00 | 0.00 | 0.00 | 44 | 1018.9 |
| 20260502163320 | 21 | 103 | 0.0 | 4.8 | 0.00 | 0.00 | 0.00 | 44 | 1019.0 |
| 20260502162820 | 21 | 103 | 0.0 | 4.8 | 0.00 | 0.00 | 0.00 | 44 | 1018.9 |
| 20260502162320 | 21 | 103 | 3.2 | 4.8 | 0.00 | 0.00 | 0.00 | 42 | 1018.9 |
| 20260502161819 | 22 | 94 | 0.0 | 4.8 | 0.00 | 0.00 | 0.00 | 41 | 1019.0 |
| 20260502161319 | 22 | 121 | 1.6 | 11.3 | 0.00 | 0.00 | 0.00 | 42 | 1018.9 |
| 20260502160819 | 22 | 124 | 4.8 | 11.3 | 0.00 | 0.00 | 0.00 | 42 | 1019.0 |
| 20260502160320 | 22 | 92 | 3.2 | 11.3 | 0.00 | 0.00 | 0.00 | 41 | 1019.0 |
| 20260502152320 | 22 | 99 | 3.2 | 11.3 | 0.00 | 0.00 | 0.00 | 40 | 1019.4 |
| 20260502151320 | 22 | 173 | 3.2 | 12.9 | 0.00 | 0.00 | 0.00 | 40 | 1019.6 |
| 20260502150820 | 22 | 137 | 6.4 | 12.9 | 0.00 | 0.00 | 0.00 | 40 | 1019.6 |
| 20260502150319 | 22 | 142 | 4.8 | 14.5 | 0.00 | 0.00 | 0.00 | 41 | 1019.6 |
| 20260502130319 | 24 | 127 | 8.0 | 12.9 | 0.00 | 0.00 | 0.00 | 36 | 1020.6 |
| 20260502122819 | 23 | 94 | 4.8 | 14.5 | 0.00 | 0.00 | 0.00 | 40 | 1021.1 |
| 20260502122319 | 23 | 113 | 8.0 | 19.3 | 0.00 | 0.00 | 0.00 | 38 | 1021.1 |
| 20260502121319 | 23 | 109 | 9.7 | 19.3 | 0.00 | 0.00 | 0.00 | 37 | 1021.2 |
| 20260502120819 | 23 | 146 | 6.4 | 19.3 | 0.00 | 0.00 | 0.00 | 38 | 1021.3 |
| 20260502115819 | 24 | 127 | 6.4 | 14.5 | 0.00 | 0.00 | 0.00 | 40 | 1021.3 |
| 20260502114819 | 23 | 136 | 4.8 | 14.5 | 0.00 | 0.00 | 0.00 | 39 | 1021.4 |
| 20260502114320 | 23 | 123 | 6.4 | 14.5 | 0.00 | 0.00 | 0.00 | 38 | 1021.4 |
| 20260502113819 | 23 | 128 | 9.7 | 14.5 | 0.00 | 0.00 | 0.00 | 39 | 1021.5 |
| 20260502113319 | 23 | 200 | 3.2 | 9.7 | 0.00 | 0.00 | 0.00 | 40 | 1021.7 |
| 20260502112819 | 23 | 185 | 3.2 | 4.8 | 0.00 | 0.00 | 0.00 | 40 | 1021.7 |
| 20260502111819 | 22 | 140 | 3.2 | 14.5 | 0.00 | 0.00 | 0.00 | 40 | 1021.9 |
| 20260502111319 | 23 | 128 | 9.7 | 14.5 | 0.00 | 0.00 | 0.00 | 39 | 1021.9 |
| 20260502110819 | 22 | 86 | 4.8 | 12.9 | 0.00 | 0.00 | 0.00 | 39 | 1022.0 |
| 20260502105820 | 22 | 116 | 4.8 | 11.3 | 0.00 | 0.00 | 0.00 | 39 | 1022.1 |
| 20260502105319 | 22 | 32 | 3.2 | 11.3 | 0.00 | 0.00 | 0.00 | 41 | 1022.2 |
| 20260502104818 | 22 | 109 | 4.8 | 12.9 | 0.00 | 0.00 | 0.00 | 40 | 1022.3 |
| 20260502104319 | 22 | 137 | 8.0 | 12.9 | 0.00 | 0.00 | 0.00 | 41 | 1022.4 |
| 20260502103819 | 22 | 103 | 4.8 | 9.7 | 0.00 | 0.00 | 0.00 | 41 | 1022.5 |
| 20260502103320 | 22 | 309 | 1.6 | 9.7 | 0.00 | 0.00 | 0.00 | 43 | 1022.5 |
| 20260502102818 | 22 | 277 | 1.6 | 9.7 | 0.00 | 0.00 | 0.00 | 42 | 1022.7 |
| 20260502101819 | 22 | 97 | 1.6 | 4.8 | 0.00 | 0.00 | 0.00 | 44 | 1022.8 |
| 20260502101319 | 22 | 98 | 3.2 | 8.0 | 0.00 | 0.00 | 0.00 | 42 | 1022.9 |
| 20260502100819 | 22 | 94 | 4.8 | 8.0 | 0.00 | 0.00 | 0.00 | 41 | 1023.0 |
| 20260502100319 | 21 | 125 | 1.6 | 4.8 | 0.00 | 0.00 | 0.00 | 44 | 1023.0 |
| 20260502091319 | 18 | 197 | 1.6 | 4.8 | 0.00 | 0.00 | 0.00 | 50 | 1023.9 |
| 20260502090819 | 18 | 197 | 3.2 | 4.8 | 0.00 | 0.00 | 0.00 | 54 | 1024.0 |
| 20260502090319 | 18 | 197 | 1.6 | 4.8 | 0.00 | 0.00 | 0.00 | 56 | 1024.1 |
| 20260502070819 | 11 | 103 | 3.2 | 4.8 | 0.00 | 0.00 | 0.00 | 77 | 1025.7 |
| 20260502070318 | 11 | 103 | 0.0 | 4.8 | 0.00 | 0.00 | 0.00 | 78 | 1025.7 |
| 20260502065819 | 11 | 103 | 3.2 | 4.8 | 0.00 | 0.00 | 0.00 | 80 | 1025.7 |
| 20260502065319 | 10 | 97 | 1.6 | 3.2 | 0.00 | 0.00 | 0.00 | 84 | 1025.8 |
| 20260502064820 | 10 | 109 | 1.6 | 3.2 | 0.00 | 0.00 | 0.00 | 83 | 1025.9 |
| 20260502063819 | 8 | 109 | 1.6 | 4.8 | 0.00 | 0.00 | 0.00 | 88 | 1026.2 |
| 20260502063319 | 8 | 300 | 1.6 | 3.2 | 0.00 | 0.00 | 0.00 | 91 | 1026.2 |
| 20260502062819 | 7 | 296 | 1.6 | 3.2 | 0.00 | 0.00 | 0.00 | 92 | 1026.2 |
| 20260502062318 | 7 | 298 | 1.6 | 3.2 | 0.00 | 0.00 | 0.00 | 94 | 1026.2 |
| 20260502061819 | 6 | 296 | 1.6 | 3.2 | 0.00 | 0.00 | 0.00 | 94 | 1026.2 |
| 20260502061319 | 6 | 292 | 1.6 | 4.8 | 0.00 | 0.00 | 0.00 | 95 | 1026.3 |
| 20260502060819 | 6 | 303 | 3.2 | 4.8 | 0.00 | 0.00 | 0.00 | 95 | 1026.4 |
| 20260502055319 | 5 | 292 | 1.6 | 4.8 | 0.00 | 0.00 | 0.00 | 96 | 1026.4 |
| 20260502054818 | 5 | 294 | 0.0 | 1.6 | 0.00 | 0.00 | 0.00 | 97 | 1026.4 |
| 20260502054318 | 4 | 299 | 0.0 | 1.6 | 0.00 | 0.00 | 0.00 | 95 | 1026.4 |
| 20260502053818 | 3 | 306 | 0.0 | 0.0 | 0.00 | 0.00 | 0.00 | 94 | 1026.5 |
| 20260502053319 | 3 | 296 | 0.0 | 0.0 | 0.00 | 0.00 | 0.00 | 94 | 1026.5 |
| 20260502052818 | 3 | 296 | 0.0 | 0.0 | 0.00 | 0.00 | 0.00 | 94 | 1026.5 |
| 20260502052319 | 3 | 297 | 0.0 | 0.0 | 0.00 | 0.00 | 0.00 | 94 | 1026.5 |
| 20260502051818 | 3 | 296 | 0.0 | 0.0 | 0.00 | 0.00 | 0.00 | 94 | 1026.5 |
| 20260502051318 | 3 | 296 | 0.0 | 0.0 | 0.00 | 0.00 | 0.00 | 94 | 1026.6 |
| 20260502050819 | 3 | 296 | 0.0 | 0.0 | 0.00 | 0.00 | 0.00 | 94 | 1026.6 |
| 20260502050318 | 3 | 295 | 0.0 | 0.0 | 0.00 | 0.00 | 0.00 | 94 | 1026.6 |
| 20260502045818 | 3 | 295 | 0.0 | 0.0 | 0.00 | 0.00 | 0.00 | 94 | 1026.7 |
| 20260502044318 | 3 | 296 | 0.0 | 0.0 | 0.00 | 0.00 | 0.00 | 94 | 1026.6 |
| 20260502043818 | 3 | 296 | 0.0 | 0.0 | 0.00 | 0.00 | 0.00 | 94 | 1026.5 |
| 20260502043318 | 3 | 296 | 0.0 | 0.0 | 0.00 | 0.00 | 0.00 | 94 | 1026.6 |
| 20260502042818 | 3 | 296 | 0.0 | 0.0 | 0.00 | 0.00 | 0.00 | 93 | 1026.6 |
| 20260502042318 | 3 | 296 | 0.0 | 1.6 | 0.00 | 0.00 | 0.00 | 94 | 1026.5 |
| 20260502041818 | 3 | 296 | 0.0 | 1.6 | 0.00 | 0.00 | 0.00 | 93 | 1026.5 |
| 20260502040819 | 3 | 296 | 0.0 | 0.0 | 0.00 | 0.00 | 0.00 | 93 | 1026.6 |
| 20260502040318 | 3 | 296 | 0.0 | 0.0 | 0.00 | 0.00 | 0.00 | 93 | 1026.6 |
| 20260502035818 | 3 | 298 | 0.0 | 0.0 | 0.00 | 0.00 | 0.00 | 93 | 1026.5 |
| 20260502035318 | 3 | 298 | 0.0 | 0.0 | 0.00 | 0.00 | 0.00 | 93 | 1026.5 |
| 20260502034818 | 3 | 298 | 0.0 | 0.0 | 0.00 | 0.00 | 0.00 | 93 | 1026.5 |
| 20260502034319 | 3 | 298 | 0.0 | 0.0 | 0.00 | 0.00 | 0.00 | 93 | 1026.5 |
| 20260502033818 | 3 | 298 | 0.0 | 1.6 | 0.00 | 0.00 | 0.00 | 93 | 1026.5 |
| 20260502033318 | 3 | 297 | 0.0 | 1.6 | 0.00 | 0.00 | 0.00 | 93 | 1026.5 |
| 20260502032819 | 3 | 298 | 0.0 | 0.0 | 0.00 | 0.00 | 0.00 | 93 | 1026.4 |
| 20260502032318 | 3 | 298 | 0.0 | 0.0 | 0.00 | 0.00 | 0.00 | 93 | 1026.3 |
| 20260502031318 | 3 | 298 | 0.0 | 0.0 | 0.00 | 0.00 | 0.00 | 93 | 1026.4 |
| 20260502030818 | 4 | 298 | 0.0 | 0.0 | 0.00 | 0.00 | 0.00 | 93 | 1026.4 |
| 20260502030318 | 4 | 298 | 0.0 | 1.6 | 0.00 | 0.00 | 0.00 | 93 | 1026.4 |
| 20260502025818 | 4 | 298 | 0.0 | 1.6 | 0.00 | 0.00 | 0.00 | 93 | 1026.4 |
| 20260502025318 | 4 | 298 | 1.6 | 1.6 | 0.00 | 0.00 | 0.00 | 93 | 1026.4 |
| 20260502024319 | 4 | 299 | 0.0 | 0.0 | 0.00 | 0.00 | 0.00 | 92 | 1026.5 |
| 20260502023818 | 4 | 299 | 0.0 | 0.0 | 0.00 | 0.00 | 0.00 | 92 | 1026.5 |
| 20260502022818 | 5 | 298 | 0.0 | 1.6 | 0.00 | 0.00 | 0.00 | 93 | 1026.5 |
| 20260502022318 | 5 | 298 | 1.6 | 1.6 | 0.00 | 0.00 | 0.00 | 93 | 1026.5 |